Location: Kielce
(50.8833°N, 20.6167°E)
Time: 21:45:33
(UTC+02:00)

Tiros 1 despin weight - Visible Passes

Search period start: 17 April 2021 00:00
Search period end: 27 April 2021 00:00
Orbit: 593 x 641 km, 48.2° (Epoch: 17 April)

Date Brightness Start Highest point End Pass type
(mag) Time Alt. Az. Time Alt. Az. Time Alt. Az.
21 Apr ? 04:27:16 10° SSE 04:28:55 12° SE 04:30:34 10° ESE visible
22 Apr ? 04:41:32 10° S 04:44:49 19° SE 04:48:05 10° E visible
24 Apr ? 03:33:53 11° S 03:36:11 15° SE 03:38:45 10° ESE visible
25 Apr ? 03:49:22 14° SSW 03:52:08 23° SSE 03:55:45 10° E visible
26 Apr ? 02:27:46 11° SE 02:27:46 11° SE 02:28:39 10° ESE visible
26 Apr ? 04:04:48 14° SSW 04:08:11 34° SSE 04:12:19 10° E visible
